Location: Bandys
(35.4750°N, 81.0830°W)
Time: 02:24:55
(UTC-04:00)

Daily predictions for brighter satellites

Satellite Brightness Start Highest point End
(mag) Time Altitude Azimuth Time Altitude Azimuth Time Altitude Azimuth
Cosmos 2333 Rocket 4.0 00:07:43 27° NNW 00:07:43 27° NNW 00:10:36 10° N
Terra 4.5 00:12:27 16° NW 00:12:27 16° NW 00:13:32 10° NNW
Cosmos 2237 Rocket 4.3 00:27:22 22° N 00:27:22 22° N 00:29:33 10° N
CENTAUR R/B 4.0 01:12:45 10° NW 01:17:32 41° NW 01:17:32 41° NW
COSMOS 2406 4.3 03:25:15 42° NE 03:25:15 42° NE 03:29:00 10° NNE
Resurs 1-4 Rocket 3.3 03:26:08 10° NNE 03:29:32 39° NE 03:29:32 39° NE
ADEOS Rocket 4.1 03:26:10 10° N 03:29:13 33° NNW 03:29:13 33° NNW
SL-16 R/B 2.8 03:33:18 63° NE 03:33:18 63° NE 03:38:46 10° N
ARIANE 5 R/B 3.5 03:38:08 10° NNE 03:41:55 46° NE 03:41:55 46° NE
CZ-2D R/B 2.9 03:43:24 10° NNE 03:47:15 49° NNE 03:47:15 49° NNE
Cosmos 1605 Rocket 4.1 03:53:59 72° NNW 03:53:59 72° NNW 03:59:46 10° N
BREEZE-M DEB (TANK) 4.2 03:56:34 65° SSW 03:56:34 65° SSW 04:16:37 10° SE
MOS 1 Rocket 4.5 04:04:46 10° N 04:07:17 34° N 04:07:17 34° N
Cosmos 2082 Rocket 3.9 04:07:33 20° SE 04:09:39 25° ESE 04:14:08 10° NE
Cosmos 773 Rocket 4.5 04:10:42 53° ESE 04:10:52 54° ESE 04:16:02 10° NNE
IRS-1D 4.3 04:06:41 10° N 04:10:29 44° NNW 04:10:29 44° NNW
ADEOS II 3.8 04:13:48 10° NE 04:18:16 28° E 04:21:15 17° SE
Cosmos 1153 Rocket 4.4 04:18:10 73° WSW 04:18:34 76° W 04:24:55 10° N
OAO 1 4.5 04:20:08 81° ESE 04:20:08 81° ESE 04:25:24 10° E
Cosmos 1726 4.3 04:22:35 21° N 04:22:35 21° N 04:23:57 10° N
Tiangong 2 3.5 04:30:19 24° ENE 04:30:19 24° ENE 04:31:44 10° ENE
ADEOS 4.0 04:23:51 10° N 04:28:18 48° NW 04:28:18 48° NW
Cosmos 1151 Rocket 4.2 04:28:07 34° ESE 04:29:00 39° E 04:32:59 10° NNE
Cosmos 2100 Rocket 4.0 04:29:51 46° S 04:31:55 85° E 04:38:19 10° N
Cosmos 1802 Rocket 4.2 04:29:14 32° SSE 04:32:07 66° E 04:38:20 10° NNE
Cosmos 1447 Rocket 4.4 04:29:49 10° NNW 04:35:56 64° W 04:36:56 56° SW
SL-24 R/B 4.4 04:34:51 10° N 04:40:37 73° WNW 04:41:15 64° SW
MOZ.5/SAFIR/RUBIN 5/SL-8 4.3 04:42:45 45° NW 04:42:45 45° NW 04:46:17 10° NNW
Shenzhou-11 Module 3.9 04:43:41 31° NE 04:43:41 31° NE 04:45:34 10° NE
CZ-2D R/B 4.2 04:38:54 10° N 04:41:45 40° NNW 04:41:45 40° NNW
Cosmos 1892 4.5 04:39:49 10° NNE 04:43:16 31° E 04:46:42 10° SE
Meteor 2-17 Rocket 4.4 04:41:57 53° SW 04:43:17 66° W 04:49:21 10° N
Okean O Rocket 3.5 04:40:17 10° NE 04:44:02 27° E 04:47:32 11° SSE
UNKNOWN OBJECT B 3.9 04:41:06 10° N 04:43:54 35° NW 04:43:54 35° NW
Sich 1 4.3 04:43:07 10° NNW 04:45:34 29° NW 04:45:34 29° NW
In-Cosmos 22 Rocket 4.0 04:42:21 10° N 04:47:44 86° E 04:51:07 23° S
Lacrosse 5 3.6 04:43:41 10° NNW 04:48:13 32° NE 04:52:45 10° ESE
Meteor 2-10 4.2 04:47:50 52° SW 04:48:59 64° W 04:54:37 10° N
Hubble Space Telescope 2.1 04:53:56 27° SSE 04:53:56 27° SSE 04:56:38 10° ESE
Meteor 1-27 4.4 04:50:57 25° S 04:54:22 72° E 04:59:58 10° NNE
Cosmos 2173 Rocket 4.0 04:52:39 38° SSW 04:55:07 68° W 05:01:28 10° N
USA 229 DEB 4.2 04:53:05 10° NW 04:59:38 38° WSW 05:06:16 10° S
USA 229 4.2 04:53:11 10° NW 04:59:45 39° WSW 05:06:24 10° S
OAO 2 Rocket 3.7 05:01:51 40° SSW 05:02:53 46° SSE 05:07:38 10° E
CZ-4B R/B 3.7 04:58:44 10° NNE 05:03:10 56° E 05:06:22 18° S
Cosmos 1833 Rocket 2.7 05:01:08 29° S 05:04:09 77° ESE 05:09:49 10° NNE
NOSS 3-1 (A) 4.2 04:57:15 10° NNW 05:05:07 85° ENE 05:13:41 10° SSE
Cosmos 1470 Rocket 3.4 05:04:11 10° NNW 05:08:29 66° W 05:10:11 35° SSW
Resurs 1-4 Rocket 3.9 05:07:51 10° NNW 05:10:36 14° WNW 05:10:37 14° WNW
Cosmos 923 Rocket 3.9 05:08:52 35° SSW 05:11:02 71° WNW 05:16:17 10° NNE
Cosmos 1515 Rocket 3.9 05:13:09 40° WSW 05:13:50 44° W 05:18:04 10° N
Cosmos 1459 Rocket 4.3 05:13:16 31° SW 05:15:36 44° W 05:21:22 10° N
SL-16 R/B 4.2 05:18:25 14° WNW 05:18:25 14° WNW 05:20:16 10° WNW
Cosmos 2228 Rocket 3.8 05:16:58 32° W 05:17:22 33° WNW 05:21:24 10° NNW
ARIANE 5 R/B 4.4 05:19:23 10° NW 05:21:51 13° WNW 05:22:15 13° WNW
Cosmos 1980 Rocket 4.3 05:18:32 10° N 05:23:24 29° ENE 05:28:14 10° ESE
Cosmos 482 Debris 4.4 05:21:57 13° NW 05:24:09 54° NE 05:28:17 10° ESE
MOS 1-B 4.5 05:19:54 10° N 05:25:34 56° WNW 05:29:31 20° SW
Cosmos 1680 Rocket 3.6 05:26:01 23° SSW 05:29:18 63° WNW 05:34:36 10° N
Timation 2 Rocket 4.4 05:24:03 10° S 05:29:52 58° ESE 05:35:50 10° NNE
USA 234 4.2 05:24:10 10° ENE 05:30:19 42° SE 05:36:24 10° SSW
Cosmos 2278 3.6 05:25:40 10° NNW 05:31:17 71° WSW 05:36:53 10° SSE
Cosmos 1455 2.2 05:31:15 26° SSW 05:33:05 53° W 05:36:46 10° N
Cosmos 2084 3.2 05:31:03 25° SSW 05:33:22 87° WNW 05:37:19 10° NNE
NOSS 3-1 (C) 4.2 05:26:01 10° NW 05:33:34 51° WSW 05:41:41 10° S
IRS-1C Rocket 4.3 05:28:24 10° NNE 05:33:39 74° ESE 05:38:54 10° S
Cosmos 2112 Rocket 4.1 05:32:38 18° SSW 05:36:32 64° WNW 05:41:51 10° N
Cosmos 1900 4.4 05:34:17 15° SSW 05:38:28 82° ESE 05:43:36 10° NNE
Cosmos 1697 Rocket 3.0 05:32:50 10° NNW 05:38:31 70° ENE 05:44:08 10° SSE
Lacrosse 4 Rocket 4.0 05:42:46 10° SSE 05:46:06 21° ESE 05:49:28 10° ENE
CZ-4B DEB 4.2 05:43:03 10° N 05:48:34 71° WNW 05:54:00 10° SSW
BREEZE M DEB (TANK) 2.1 05:47:28 16° WNW 05:49:07 56° SW 05:52:55 10° SE
PSLV R/B 3.9 05:45:13 10° N 05:49:20 44° WNW 05:53:01 12° SW
Abrixas 2.9 05:49:42 25° WSW 05:50:22 30° SW 05:52:42 10° SSE
Cosmos 2233 Rocket 3.9 05:45:52 10° S 05:51:59 78° W 05:58:09 10° N
Cosmos 2082 Rocket 2.8 05:49:26 16° SW 05:53:27 38° WNW 05:58:41 10° N
ADEOS II 3.0 05:53:21 10° N 05:57:54 31° WNW 06:02:12 11° SW
PSLV R/B 3.1 05:57:49 10° WNW 06:01:02 88° SSW 06:04:18 10° ESE
COSMOS 2487 4.3 05:59:47 13° W 06:01:12 16° WNW 06:03:31 10° NNW
Meteor PRIRODA 3.6 05:58:13 10° N 06:01:52 67° WNW 06:05:28 10° SSW
Tiangong 2 2.8 06:02:51 10° WNW 06:05:39 27° NNW 06:08:28 10° NE
Cosmos 2346 Rocket 4.5 06:00:47 10° N 06:07:02 73° W 06:13:15 10° S
Cosmos 1869 3.6 06:04:06 10° SSW 06:07:54 46° W 06:11:45 10° N
ASTEX 1 4.4 06:03:16 10° NNE 06:08:03 51° E 06:12:46 10° S
CZ-2C R/B 3.6 06:05:24 10° S 06:09:48 79° WSW 06:14:17 10° NNW
CZ-4B R/B 3.6 06:08:10 10° N 06:13:17 43° WNW 06:18:19 10° SW
BREEZE-M DEB (TANK) 4.1 06:12:25 10° NNW 06:13:59 17° NNE 06:15:22 10° ENE
Meteor 2-10 Rocket 4.3 06:11:07 10° S 06:16:47 65° E 06:22:34 10° NNE
Landsat 4 4.3 06:13:33 10° SSW 06:16:59 35° W 06:20:27 10° NNW
Meteor 1-31 Rocket 3.0 06:13:40 10° N 06:17:31 53° WNW 06:21:22 10° SSW
Cosmos 1707 Rocket 4.0 06:14:01 10° SSW 06:18:12 42° W 06:22:24 10° N
Shenzhou-11 Module 4.1 06:16:53 10° WNW 06:19:21 21° N 06:21:48 10° NE
Okean O Rocket 2.9 06:16:46 10° NNW 06:20:14 23° WNW 06:23:41 10° WSW
Okean-O 2.8 06:16:08 10° NNE 06:20:36 81° ESE 06:25:00 10° S
NOSS 7 (E) 4.5 06:20:48 10° SW 06:24:29 68° WNW 06:27:45 10° NNE
Cosmos 1656 4.5 06:20:59 10° NW 06:25:50 29° WSW 06:30:39 10° SSW
